Volver al catálogo

USA 159

ActivoMilitarGEO
NORAD 26880·PAYLOAD·🇺🇸 United States

Lanzado Aug 6, 2001 desde Cape Canaveral Space Force Station

Loading…

TLE

ActualizadoSource: Space-Track

Época: Sep 14, 2026, 06:34 UTC

1 26880U 01033A   26257.27369558 -.00000144  00000-0  00000-0 0  9998
2 26880  12.8684  15.8326 0002162 170.9885 189.8637  0.99198368 33842

Sigue USA 159 en tiempo real con AllMySat

Download on the App Store